Waarnemingen

Advertentie
Mijn weer
Pertusato, Frankrijk (7770): temperatuur & dauwpunt: 20.05.2019 15:00:00 - 26.05.2019 15:00:00 (CEST)Pertusato, Frankrijk (7770): windsnelheid & windstoten: 20.05.2019 15:00:00 - 26.05.2019 15:00:00 (CEST)Pertusato, Frankrijk (7770): windrichting: 20.05.2019 15:00:00 - 26.05.2019 15:00:00 (CEST)Pertusato, Frankrijk (7770): luchtdruk: 20.05.2019 15:00:00 - 26.05.2019 15:00:00 (CEST)Pertusato, Frankrijk (7770): zicht: 20.05.2019 15:00:00 - 26.05.2019 15:00:00 (CEST)Pertusato, Frankrijk (7770): neerslag: 20.05.2019 15:00:00 - 26.05.2019 15:00:00 (CEST)
Datum & Tijd tt [°C] td [°C] ff [km/u] ff [kn] fx [km/u] fx [kn] dd ppp [hPa] vv [km] rr [mm]
26.05.2019 15:00:00 15,4 14,3 24 13 47 25 NO 1009,8 - 0,4
26.05.2019 14:00:00 15,6 14,5 26 14 44 24 NO 1010,0 - 0,6
26.05.2019 13:00:00 15,8 15,2 24 13 41 22 NO 1010,5 - 1,2
26.05.2019 12:00:00 15,2 14,7 25 13 47 25 NO 1011,1 - 0,6
26.05.2019 11:00:00 15,1 14,5 27 14 45 25 NO 1011,0 10 1,4
26.05.2019 10:00:00 14,7 13,9 25 14 42 23 NO 1011,3 - 0,8
26.05.2019 09:00:00 14,7 13,1 21 12 37 20 ONO 1011,3 - 0,4
26.05.2019 08:00:00 15,0 14,2 16 9 29 16 NO 1011,5 - 0,0
26.05.2019 07:00:00 14,6 14,1 11 6 22 12 NO 1011,3 - 0,0
26.05.2019 06:00:00 14,4 13,8 14 8 26 14 NO 1011,3 - 0,2
26.05.2019 05:00:00 14,2 13,4 16 9 30 16 ONO 1011,9 15 0,2
26.05.2019 04:00:00 14,7 13,9 16 9 36 20 ONO 1012,2 - 0,2
26.05.2019 03:00:00 15,0 12,1 17 9 30 16 ONO 1012,2 - 0,0
26.05.2019 02:00:00 15,6 12,0 20 11 32 17 ONO 1012,8 15 0,0
26.05.2019 01:00:00 15,4 10,6 23 13 34 19 ONO 1013,3 - 0,0
26.05.2019 00:00:00 15,8 12,4 19 10 32 18 O 1014,2 - 0,0
25.05.2019 23:00:00 15,6 11,4 17 9 29 16 O 1014,3 - 0,0
25.05.2019 22:00:00 15,9 14,1 13 7 23 12 ONO 1014,1 - 0,0
25.05.2019 21:00:00 16,4 15,4 14 7 24 13 ONO 1013,9 - 0,0
25.05.2019 20:00:00 16,9 15,6 17 9 30 16 O 1013,6 - 0,0
25.05.2019 19:00:00 17,5 15,8 21 12 34 18 O 1013,0 - 0,0
25.05.2019 18:00:00 18,3 16,1 21 11 39 21 ONO 1013,1 - 0,0
25.05.2019 17:00:00 20,0 16,2 23 12 41 22 O 1012,8 - 0,0
25.05.2019 16:00:00 19,5 14,9 26 14 41 22 O 1013,6 - 0,0
25.05.2019 15:00:00 22,0 11,7 25 14 43 23 ONO 1013,6 - 0,0
25.05.2019 14:00:00 21,7 12,5 28 15 45 24 ONO 1013,4 15 0,0
25.05.2019 13:00:00 20,8 14,2 29 16 52 28 ONO 1013,8 - 0,0
25.05.2019 12:00:00 19,9 14,3 31 17 48 26 ONO 1013,9 - 0,0
25.05.2019 11:00:00 20,6 14,5 28 15 46 25 ONO 1013,5 - 0,0
25.05.2019 10:00:00 19,1 14,1 31 17 49 27 ONO 1013,5 - 0,0
25.05.2019 09:00:00 17,9 14,2 33 18 50 27 ONO 1014,0 - 0,0
25.05.2019 08:00:00 16,7 14,2 29 16 46 25 ONO 1013,7 15 0,0
25.05.2019 07:00:00 15,0 14,0 31 17 44 24 ONO 1012,7 - 0,0
25.05.2019 06:00:00 15,6 15,1 30 16 44 24 ONO 1012,7 - 0,0
25.05.2019 05:00:00 15,2 14,7 25 14 36 19 ONO 1012,5 - 0,0
25.05.2019 04:00:00 15,1 14,6 26 14 36 20 NO 1012,5 - 0,0
25.05.2019 03:00:00 15,0 14,2 22 12 32 18 NO 1012,7 - 0,0
25.05.2019 02:00:00 14,9 13,6 23 12 31 17 NO 1013,3 15 0,0
25.05.2019 01:00:00 14,3 11,8 21 12 29 15 NO 1013,8 - 0,0
25.05.2019 00:00:00 14,2 10,6 20 11 26 14 NO 1014,0 - 0,0
24.05.2019 23:00:00 14,5 11,8 14 8 23 12 NO 1014,3 - 0,0
24.05.2019 22:00:00 15,3 13,0 11 6 14 8 NO 1014,0 - 0,0
24.05.2019 21:00:00 16,0 13,1 11 6 15 8 NO 1013,8 - 0,0
24.05.2019 20:00:00 18,3 11,4 11 6 14 8 ONO 1013,4 18 0,0
24.05.2019 19:00:00 20,4 11,6 9 5 18 10 O 1013,2 - 0,0
24.05.2019 18:00:00 21,0 11,3 11 6 19 11 ONO 1013,5 - 0,0
24.05.2019 17:00:00 21,2 14,1 13 7 26 14 O 1013,9 - 0,0
24.05.2019 16:00:00 21,4 14,8 16 9 28 15 O 1014,2 - 0,0
24.05.2019 15:00:00 22,0 14,6 18 10 29 15 O 1014,4 - 0,0
24.05.2019 14:00:00 21,3 9,2 5 3 11 6 ZW 1014,7 20 0,0
24.05.2019 13:00:00 20,1 10,2 7 4 11 6 W 1015,1 - 0,0
24.05.2019 12:00:00 19,1 13,1 6 3 12 7 W 1015,4 - 0,0
24.05.2019 11:00:00 19,0 14,3 10 5 16 9 W 1015,4 20 0,0
24.05.2019 10:00:00 18,1 14,8 12 7 17 9 W 1015,5 - 0,0
24.05.2019 09:00:00 17,0 14,8 13 7 22 12 W 1015,6 - 0,0
24.05.2019 08:00:00 16,1 14,6 15 8 22 12 WNW 1015,4 - 0,0
24.05.2019 07:00:00 14,9 14,1 19 10 27 14 W 1015,6 - 0,0
24.05.2019 06:00:00 14,7 14,2 20 11 28 15 W 1015,5 - 0,0
24.05.2019 05:00:00 15,0 14,4 19 11 27 15 W 1015,4 - 0,0
24.05.2019 04:00:00 15,4 14,8 21 11 37 20 W 1015,8 - 0,0
24.05.2019 03:00:00 15,6 14,8 15 8 37 20 W 1015,8 - 0,0
24.05.2019 02:00:00 16,0 15,2 21 12 39 21 W 1016,0 - 0,0
24.05.2019 01:00:00 15,8 14,5 22 12 41 22 W 1016,4 - 0,0
24.05.2019 00:00:00 15,9 14,3 23 12 43 23 W 1016,7 - 0,0
23.05.2019 23:00:00 15,6 14,3 22 12 38 21 W 1016,8 - 0,0
23.05.2019 22:00:00 15,9 15,1 10 5 36 19 W 1016,9 - 0,0
23.05.2019 21:00:00 16,1 15,5 12 7 37 20 W 1016,6 - 0,0
23.05.2019 20:00:00 16,4 15,1 27 15 43 23 W 1016,4 - 0,0
23.05.2019 19:00:00 17,3 15,3 30 16 44 24 W 1016,1 - 0,0
23.05.2019 18:00:00 17,7 15,5 31 17 50 27 W 1016,1 - 0,0
23.05.2019 17:00:00 17,7 15,5 34 19 47 25 W 1016,3 20 0,0
23.05.2019 16:00:00 18,2 15,4 33 18 45 25 W 1016,4 - 0,0
23.05.2019 15:00:00 18,4 15,5 34 18 45 25 W 1016,5 - 0,0
23.05.2019 14:00:00 17,9 15,0 30 16 42 23 W 1017,0 17 0,0
23.05.2019 13:00:00 18,0 14,5 14 8 32 17 W 1017,7 - 0,0
23.05.2019 12:00:00 17,7 14,4 10 6 39 21 W 1018,2 - 0,0
23.05.2019 11:00:00 16,5 14,3 16 8 36 20 WZW 1018,3 15 0,0
23.05.2019 10:00:00 16,4 14,6 16 9 31 17 W 1018,2 - 0,0
23.05.2019 09:00:00 15,8 14,5 22 12 34 18 W 1017,9 - 0,0
23.05.2019 08:00:00 15,3 14,3 23 13 37 20 W 1017,3 15 0,0
23.05.2019 07:00:00 15,1 13,8 29 15 44 24 W 1016,9 - 0,0
23.05.2019 06:00:00 14,7 13,6 30 16 46 25 W 1016,5 - 0,0
23.05.2019 05:00:00 14,9 13,8 23 13 48 26 W 1016,5 15 0,0
23.05.2019 04:00:00 14,8 13,5 13 7 41 22 W 1016,9 - 0,0
23.05.2019 03:00:00 14,6 13,3 29 16 37 20 W 1017,1 - 0,0
23.05.2019 02:00:00 14,6 13,3 25 13 36 19 W 1017,3 - 0,0
23.05.2019 01:00:00 14,9 13,4 29 16 40 22 W 1017,3 - 0,0
23.05.2019 00:00:00 15,1 13,3 27 15 46 25 W 1017,3 - 0,0
22.05.2019 23:00:00 15,1 13,0 27 14 48 26 W 1016,9 - 0,0
22.05.2019 22:00:00 15,2 13,0 31 17 53 29 W 1016,2 - 0,0
22.05.2019 21:00:00 15,3 13,3 34 18 54 29 W 1015,6 - 0,0
22.05.2019 20:00:00 15,6 13,1 29 15 55 30 W 1015,2 16 0,0
22.05.2019 19:00:00 16,3 13,6 32 17 52 28 W 1015,4 - 0,0
22.05.2019 18:00:00 16,6 14,2 35 19 63 34 W 1015,4 - 0,0
22.05.2019 17:00:00 16,9 14,4 26 14 51 27 W 1015,6 - 0,0
22.05.2019 16:00:00 17,2 14,8 19 10 53 29 W 1015,8 - 0,0
22.05.2019 15:00:00 17,3 14,8 16 9 41 22 W 1016,0 - 0,0
22.05.2019 14:00:00 17,7 15,0 18 10 39 21 W 1016,5 16 0,0
22.05.2019 13:00:00 17,4 14,5 14 8 36 20 W 1016,8 - 0,0
22.05.2019 12:00:00 16,8 14,1 15 8 51 28 WZW 1016,7 - 0,0
22.05.2019 11:00:00 16,1 13,4 24 13 54 29 WZW 1016,0 16 0,0
22.05.2019 10:00:00 15,6 13,4 25 13 54 29 WZW 1015,9 - 0,0
22.05.2019 09:00:00 15,1 13,5 20 11 55 30 W 1016,0 - 0,0
22.05.2019 08:00:00 15,2 13,2 20 11 54 29 W 1015,5 - 0,0
22.05.2019 07:00:00 14,8 13,2 19 10 54 29 W 1015,7 - 0,0
22.05.2019 06:00:00 14,7 13,2 18 10 48 26 W 1015,4 - 0,0
22.05.2019 05:00:00 14,6 13,3 16 8 44 24 W 1015,7 - 0,0
22.05.2019 04:00:00 14,6 13,3 21 11 40 21 W 1015,9 - 0,0
22.05.2019 03:00:00 14,6 13,6 16 9 45 25 W 1015,9 - 0,2
22.05.2019 02:00:00 14,8 14,0 15 8 44 24 W 1016,0 16 0,0
22.05.2019 01:00:00 14,8 14,2 19 11 46 25 W 1016,2 - 0,0
22.05.2019 00:00:00 14,7 14,1 26 14 39 21 W 1016,5 - 0,0
21.05.2019 23:00:00 14,8 14,0 31 17 42 23 W 1016,3 - 0,0
21.05.2019 22:00:00 14,8 14,0 30 16 47 26 W 1015,8 - 0,0
21.05.2019 21:00:00 15,0 14,0 37 20 54 29 W 1015,0 - 0,0
21.05.2019 20:00:00 15,3 13,8 35 19 64 34 W 1014,6 16 0,0
21.05.2019 19:00:00 15,8 13,8 26 14 63 34 W 1014,4 - 0,0
21.05.2019 18:00:00 16,0 13,8 31 17 67 36 W 1014,2 - 0,0
21.05.2019 17:00:00 16,2 13,9 33 18 68 37 W 1014,1 16 0,0
21.05.2019 16:00:00 16,3 13,8 20 11 58 31 W 1014,2 - 0,0
21.05.2019 15:00:00 16,3 13,8 27 15 55 30 W 1014,2 - 0,0
21.05.2019 14:00:00 16,4 14,1 31 17 55 30 W 1014,2 16 0,0
21.05.2019 13:00:00 16,3 14,0 30 16 64 35 W 1013,9 - 0,0
21.05.2019 12:00:00 16,1 13,8 31 17 73 39 W 1013,3 - 0,0
21.05.2019 11:00:00 15,8 13,6 43 23 66 35 W 1013,2 12 0,0
21.05.2019 10:00:00 15,2 13,7 43 23 66 35 W 1012,8 - 0,0
21.05.2019 09:00:00 15,1 13,6 37 20 67 36 W 1012,2 - 0,0
21.05.2019 08:00:00 15,1 13,1 37 20 80 43 W 1011,6 - 0,0
21.05.2019 07:00:00 14,9 13,3 27 14 75 41 W 1010,6 - 0,0
21.05.2019 06:00:00 14,7 13,4 27 15 76 41 W 1010,4 - 0,0
21.05.2019 05:00:00 14,7 13,2 29 15 79 43 W 1010,4 - 0,0
21.05.2019 04:00:00 14,6 12,8 28 15 79 42 W 1010,7 - 0,0
21.05.2019 03:00:00 14,6 12,6 28 15 77 41 W 1011,0 - 0,0
21.05.2019 02:00:00 14,8 12,7 31 17 77 42 W 1010,9 16 0,0
21.05.2019 01:00:00 15,0 13,0 25 14 64 35 W 1011,3 - 0,0
21.05.2019 00:00:00 15,1 13,0 23 12 61 33 W 1011,6 - 0,0
20.05.2019 23:00:00 15,0 12,7 21 11 63 34 W 1011,4 - 0,0
20.05.2019 22:00:00 14,9 12,8 28 15 82 45 W 1010,7 - 0,0
20.05.2019 21:00:00 14,8 12,7 30 16 80 43 W 1009,7 - 0,0
20.05.2019 20:00:00 14,8 12,8 29 16 86 46 W 1009,1 12 0,0
20.05.2019 19:00:00 14,9 12,8 30 16 87 47 W 1008,7 - 0,0
20.05.2019 18:00:00 15,1 12,8 30 16 84 45 W 1008,8 - 0,0
20.05.2019 17:00:00 15,0 12,3 44 24 90 49 W 1008,5 12 0,0
20.05.2019 16:00:00 14,6 12,8 54 29 82 44 W 1008,3 - 1,2
20.05.2019 15:00:00 14,6 13,3 41 22 96 52 W 1007,7 - 0,9

tt = temperatuur
td = dauwpunt
ff = windsnelheid
fx = windstoten
dd = windrichting
ppp = luchtdruk
vv = zicht
rr = neerslag

Weerstations in de omgeving